[[{"header":{"parameterUnit":"m.s-1","parameterCategory":1,"la1":30.2991,"la2":30.254,"lo1":-89.0895,"lo2":-89.0444,"dy":0.0017,"dx":0.0017,"nx":28,"ny":28,"refTime":"2025-02-01T03:00:00:Z","depth":0,"parameterNumber":2,"parameterNumberName":"U-component_of_WINDS"},"data":[0,0,0,0,0,0,0,0,0,0,0,0,0,0,0,0,0,0,0,0,0,0,0,0,0,0,0,0,0,0,0,0,0,0,0,0,0,0,0,0,0,0,0,0,0,0,0,0,0,0,0,0,0,0,0,0,0,0,-0.9642,-0.9642,0,-0.9657,-0.9657,-0.9657,-0.9629,-0.9628,-0.9627,-0.9626,-0.9642,-0.9644,-0.9645,0,0,0,0,0,0,0,0,0,0,0,0,0,-0.9593,-0.9594,-0.9642,-0.9642,-0.9643,-0.9656,-0.9657,-0.9657,-0.9629,-0.9628,-0.9627,-0.9626,-0.9642,-0.9643,-0.9645,0,0,0,0,0,0,0,0,0,0,0,0,0,-0.9611,-0.9594,-0.9642,-0.963,-0.963,-0.9656,-0.9657,-0.9657,-0.963,-0.9628,-0.9627,-0.9626,-0.9641,-0.9643,-0.9645,-0.9685,0,0,-0.9651,-0.9652,0,0,0,0,0,0,0,0,-0.961,-0.9613,-0.9632,-0.9631,-0.963,-0.964,-0.9645,-0.9666,-0.963,-0.963,-0.9626,-0.9625,-0.9643,-0.9644,-0.965,-0.9685,-0.9686,-0.9651,-0.9652,-0.9653,-0.9654,0,0,0,0,0,0,0,-0.9609,-0.9613,-0.9648,-0.9632,-0.9631,-0.9625,-0.9626,-0.9649,-0.9644,-0.963,-0.9628,-0.963,-0.9642,-0.9648,-0.965,-0.9686,-0.9651,-0.9653,-0.9654,-0.9655,-0.9756,-0.9757,0,0,0,0,0,0,-0.9609,-0.9612,-0.9647,-0.9648,-0.9617,-0.9627,-0.9628,-0.9638,-0.9643,-0.9643,-0.9631,-0.9628,-0.9646,-0.9648,-0.9651,-0.9698,-0.9653,-0.9655,-0.9656,-0.9754,-0.9756,-0.9758,0,0,0,0,0,0,-0.9608,-0.9613,-0.9647,-0.9629,-0.9633,-0.9629,-0.9641,-0.9639,-0.9645,-0.9644,-0.9643,-0.9638,-0.9645,-0.9648,-0.9677,-0.9698,-0.9656,-0.9658,-0.9753,-0.9755,-0.9757,-0.9793,0,0,0,0,0,0,-0.9607,-0.9612,-0.9627,-0.963,-0.9634,-0.9672,-0.9642,-0.964,-0.9649,-0.9646,-0.9651,-0.9651,-0.9644,-0.9674,-0.9679,-0.97,-0.9659,-0.9751,-0.9754,-0.9756,-0.979,-0.9796,-0.9802,0,0,0,0,0,-0.9605,-0.9636,-0.9628,-0.9632,-0.9652,-0.9673,-0.9676,-0.9667,-0.965,-0.9665,-0.9665,-0.965,-0.9695,-0.9677,-0.9682,-0.9705,-0.9749,-0.9753,-0.9756,-0.9787,-0.9795,-0.9802,0,0,0,0,0,0,-0.9636,-0.9636,-0.9627,-0.966,-0.9667,-0.9669,-0.9687,-0.9676,-0.9688,-0.9684,-0.9673,-0.9675,-0.9706,-0.9708,-0.9688,-0.9744,-0.9719,-0.9724,-0.9742,-0.9749,-0.9755,-0.9754,-0.9661,0,0,0,0,0,-0.9647,-0.9663,-0.9663,-0.9692,-0.9696,-0.9691,-0.97,-0.9693,-0.97,-0.9702,-0.9704,-0.9711,-0.9727,-0.9738,-0.9752,-0.979,-0.9792,-0.9808,-0.9814,-0.9819,-0.9823,-0.9845,-0.9853,-0.9769,-0.9769,-0.9769,0,0,-0.9669,-0.9671,-0.9682,-0.9698,-0.9703,-0.9721,-0.9694,-0.9714,-0.9727,-0.9705,-0.9733,-0.9734,-0.9742,-0.9776,-0.9791,-0.9778,-0.9847,-0.9823,-0.9827,-0.9829,-0.9849,-0.9857,-0.9864,-0.9772,-0.9771,-0.9771,0,0,-0.9719,-0.9721,-0.9747,-0.9752,-0.9759,-0.9756,-0.9762,-0.9766,-0.9766,-0.9793,-0.9777,-0.9794,-0.9821,-0.9828,-0.9835,-0.9888,-0.9876,-0.9893,-0.9924,-0.9946,-0.9952,-0.9958,-0.9978,-0.9986,-0.9897,-0.9897,-0.9897,0,-0.9745,-0.9772,-0.9761,-0.9783,-0.9791,-0.9772,-0.9798,-0.9804,-0.9815,-0.9822,-0.9808,-0.9842,-0.9846,-0.9882,-0.9895,-0.9901,-0.9908,-0.9893,-0.9952,-0.9958,-0.9963,-0.9982,-0.999,-0.99,-0.9899,-0.9899,-0.9899,0,-0.9805,-0.9824,-0.9843,-0.9855,-0.9865,-0.9889,-0.9883,-0.9895,-0.9887,-0.9885,-0.9914,-0.9918,-0.9934,-0.9941,-0.9934,-0.9976,-0.9969,-0.9953,-0.9929,-0.9973,-0.9991,-0.9999,-0.9903,-0.9902,-0.9901,-0.9901,0,0,-0.9875,-0.9881,-0.9889,-0.9894,-0.9901,-0.9916,-0.9939,-0.9954,-0.9965,-0.9974,-0.9994,-1.0018,-1.0004,-1.0012,-1.0005,-1.0024,-1.0068,-1.0006,-1.0006,-1.0019,-1.0117,-1.0129,-1.0138,-1.0059,-1.006,-1.0062,-1.0116,0,-0.9925,-0.9965,-0.9957,-0.9997,-1.0014,-0.9997,-1.0017,-1.0024,-1.0024,-1.0039,-1.0038,-1.0056,-1.0036,-1.0041,-1.0058,-1.0059,-1.0087,-1.0054,-1.0079,-1.008,-1.0079,-1.0147,-1.016,-1.0211,-1.0123,-1.0124,-1.0125,0,-0.9989,-1.0001,-1.0043,-1.0048,-1.0055,-1.0073,-1.0087,-1.0102,-1.011,-1.0108,-1.0118,-1.0108,-1.0132,-1.0106,-1.014,-1.0118,-1.0128,-1.013,-1.0131,-1.0134,-1.0106,-1.0153,-1.0227,-1.0236,-1.0136,-1.0135,-1.0135,0,-1.0038,-1.0064,-1.0092,-1.0098,-1.0104,-1.0118,-1.0121,-1.0128,-1.0138,-1.015,-1.0157,-1.0171,-1.018,-1.0192,-1.0187,-1.0168,-1.0222,-1.0196,-1.0223,-1.0223,-1.0236,-1.0235,-1.0314,-1.024,-1.024,-1.024,-1.0239,0,-1.0096,-1.0122,-1.0114,-1.0132,-1.0162,-1.0152,-1.0182,-1.0183,-1.0189,-1.0207,-1.0193,-1.021,-1.0202,-1.0219,-1.0215,-1.0245,-1.0248,-1.0248,-1.0247,-1.025,-1.0251,-1.0257,-1.0254,-1.0242,-1.0241,-1.0241,-1.024,0,-1.0155,-1.0151,-1.0181,-1.0185,-1.0186,-1.0208,-1.0212,-1.0229,-1.0227,-1.0251,-1.0255,-1.0253,-1.0273,-1.0268,-1.029,-1.0287,-1.0325,-1.0319,-1.0322,-1.0321,-1.0349,-1.0347,-1.0436,-1.0448,-1.0365,-1.0365,-1.0366,0,-1.0193,-1.0213,-1.0219,-1.023,-1.0235,-1.0253,-1.0263,-1.0255,-1.0266,-1.0278,-1.0294,-1.0312,-1.0326,-1.0359,-1.036,-1.0376,-1.0371,-1.0401,-1.0374,-1.0377,-1.0373,-1.0373,-1.0375,-1.0407,-1.0408,-1.0409,-1.0409,0,-1.0261,-1.0258,-1.0274,-1.0289,-1.0301,-1.0313,-1.0323,-1.0333,-1.0325,-1.0339,-1.0359,-1.037,-1.0392,-1.0411,-1.0427,-1.0431,-1.042,-1.0418,-1.0425,-1.0429,-1.0431,-1.0432,-1.0339,-1.0416,-1.0415,-1.0415,-1.0415,-1.0414,-1.0312,-1.033,-1.0337,-1.0355,-1.0361,-1.0371,-1.0388,-1.0389,-1.0405,-1.0422,-1.0417,-1.044,-1.0448,-1.0468,-1.0474,-1.0493,-1.0482,-1.0492,-1.0495,-1.0498,-1.0502,-1.0427,-1.0496,-1.0495,-1.0495,-1.0495,-1.0495,0,-1.0381,-1.0385,-1.0401,-1.0416,-1.043,-1.0417,-1.0428,-1.0441,-1.0462,-1.0471,-1.0485,-1.0509,-1.0528,-1.053,-1.0548,-1.0562,-1.0558,-1.0567,-1.0567,-1.0568,-1.051,-1.0503,-1.0571,-1.0571,-1.0571,-1.0571,-1.0571,-1.0571,-1.0418,-1.0448,-1.0446,-1.0479,-1.0483,-1.0505,-1.0513,-1.0522,-1.0529,-1.0556,-1.0572,-1.0573,-1.058,-1.0598,-1.0615,-1.0615,-1.0623,-1.0635,-1.0634,-1.058,-1.0572,-1.0565,-1.0558,-1.0637,-1.0637,-1.0691,-1.0691,-1.0692]},{"header":{"parameterUnit":"m.s-1","parameterCategory":1,"la1":30.2991,"la2":30.254,"lo1":-89.0895,"lo2":-89.0444,"dy":0.0017,"dx":0.0017,"nx":28,"ny":28,"refTime":"2025-02-01T03:00:00:Z","depth":0,"parameterNumber":3,"parameterNumberName":"V-component_of_WINDS"},"data":[0,0,0,0,0,0,0,0,0,0,0,0,0,0,0,0,0,0,0,0,0,0,0,0,0,0,0,0,0,0,0,0,0,0,0,0,0,0,0,0,0,0,0,0,0,0,0,0,0,0,0,0,0,0,0,0,0,0,-1.1817,-1.1817,0,-1.1852,-1.1853,-1.1853,-1.1851,-1.1851,-1.185,-1.185,-1.1884,-1.1886,-1.1887,0,0,0,0,0,0,0,0,0,0,0,0,0,-1.1745,-1.1746,-1.1817,-1.1817,-1.1817,-1.1852,-1.1853,-1.1853,-1.1851,-1.185,-1.185,-1.1849,-1.1884,-1.1886,-1.1887,0,0,0,0,0,0,0,0,0,0,0,0,0,-1.1778,-1.1747,-1.1816,-1.1821,-1.1821,-1.1852,-1.1853,-1.1853,-1.1851,-1.185,-1.185,-1.1849,-1.1883,-1.1886,-1.1888,-1.1916,0,0,-1.1894,-1.1895,0,0,0,0,0,0,0,0,-1.1776,-1.178,-1.182,-1.182,-1.1821,-1.1846,-1.184,-1.1874,-1.1851,-1.184,-1.1849,-1.1849,-1.1872,-1.1875,-1.1884,-1.1918,-1.1919,-1.1894,-1.1896,-1.1896,-1.1897,0,0,0,0,0,0,0,-1.1774,-1.1779,-1.1831,-1.182,-1.1821,-1.182,-1.1824,-1.1847,-1.186,-1.1841,-1.1841,-1.1845,-1.1873,-1.1882,-1.1884,-1.192,-1.1894,-1.1896,-1.1897,-1.1898,-1.1979,-1.1979,0,0,0,0,0,0,-1.1771,-1.1777,-1.1829,-1.1832,-1.1796,-1.1822,-1.1826,-1.1839,-1.186,-1.1862,-1.1846,-1.1845,-1.1878,-1.1882,-1.1886,-1.192,-1.1896,-1.1898,-1.19,-1.1978,-1.1979,-1.198,0,0,0,0,0,0,-1.1769,-1.1775,-1.1828,-1.1804,-1.1811,-1.1824,-1.1838,-1.184,-1.1849,-1.1863,-1.1866,-1.1853,-1.1878,-1.1883,-1.1909,-1.1922,-1.1899,-1.1901,-1.1977,-1.1978,-1.1979,-1.199,0,0,0,0,0,0,-1.1767,-1.1775,-1.1786,-1.1805,-1.1812,-1.1851,-1.1839,-1.1841,-1.1853,-1.1852,-1.187,-1.1873,-1.1878,-1.1905,-1.1911,-1.1924,-1.1903,-1.1976,-1.1977,-1.1979,-1.1989,-1.1991,-1.1994,0,0,0,0,0,-1.1765,-1.1788,-1.1787,-1.1793,-1.1827,-1.1852,-1.1856,-1.1862,-1.1854,-1.1865,-1.1874,-1.1872,-1.1919,-1.1908,-1.1914,-1.1928,-1.1975,-1.1977,-1.1979,-1.1987,-1.1991,-1.1994,0,0,0,0,0,0,-1.177,-1.179,-1.179,-1.1819,-1.1834,-1.1851,-1.1866,-1.1865,-1.1882,-1.1881,-1.1886,-1.1891,-1.1917,-1.1925,-1.1912,-1.1957,-1.1946,-1.1949,-1.195,-1.1954,-1.1957,-1.1954,-1.1905,0,0,0,0,0,-1.1774,-1.1793,-1.181,-1.1834,-1.1842,-1.1853,-1.1864,-1.1867,-1.1882,-1.1888,-1.1899,-1.1913,-1.1931,-1.1943,-1.196,-1.1989,-1.1993,-1.2002,-1.2005,-1.2007,-1.201,-1.2026,-1.203,-1.1986,-1.1986,-1.1986,0,0,-1.1784,-1.1798,-1.1809,-1.1836,-1.1848,-1.1867,-1.1858,-1.1878,-1.1892,-1.1891,-1.1916,-1.1925,-1.1941,-1.1969,-1.1981,-1.1976,-1.2023,-1.201,-1.2011,-1.2013,-1.2028,-1.2032,-1.2036,-1.1987,-1.1987,-1.1987,0,0,-1.1812,-1.1824,-1.1846,-1.1858,-1.1876,-1.1883,-1.1888,-1.1905,-1.1911,-1.1937,-1.1936,-1.1952,-1.1983,-1.1995,-1.2005,-1.2037,-1.2035,-1.2042,-1.2057,-1.2072,-1.2076,-1.2079,-1.209,-1.2094,-1.2045,-1.2045,-1.2045,0,-1.1821,-1.1851,-1.1857,-1.1878,-1.1889,-1.1889,-1.1911,-1.1922,-1.1945,-1.1953,-1.1947,-1.1986,-1.1997,-1.2027,-1.2035,-1.2043,-1.2049,-1.204,-1.2075,-1.2078,-1.2081,-1.2092,-1.2096,-1.2046,-1.2046,-1.2046,-1.2045,0,-1.1862,-1.1882,-1.1897,-1.192,-1.1933,-1.1954,-1.1963,-1.1976,-1.1978,-1.1985,-1.2011,-1.2024,-1.2044,-1.2051,-1.2053,-1.2082,-1.2078,-1.2074,-1.2063,-1.2086,-1.2096,-1.2101,-1.2047,-1.2047,-1.2046,-1.2046,0,0,-1.1894,-1.1919,-1.1925,-1.1935,-1.1955,-1.197,-1.1991,-1.2012,-1.2022,-1.2038,-1.2055,-1.2081,-1.2077,-1.2088,-1.2091,-1.2105,-1.2129,-1.2099,-1.2099,-1.2104,-1.2162,-1.2166,-1.2171,-1.2128,-1.2129,-1.213,-1.2161,0,-1.1924,-1.1962,-1.1968,-1.2001,-1.202,-1.202,-1.2038,-1.2052,-1.2059,-1.2075,-1.2083,-1.2102,-1.2095,-1.2102,-1.2115,-1.2124,-1.2141,-1.2121,-1.2145,-1.2145,-1.2141,-1.2176,-1.218,-1.2209,-1.2165,-1.2166,-1.2166,0,-1.1964,-1.1981,-1.2016,-1.2033,-1.2041,-1.2058,-1.2077,-1.2092,-1.2108,-1.2112,-1.2125,-1.2126,-1.2148,-1.2136,-1.2165,-1.2151,-1.2161,-1.2167,-1.2168,-1.2171,-1.2157,-1.218,-1.2218,-1.2222,-1.2173,-1.2172,-1.2172,0,-1.1984,-1.2015,-1.2041,-1.2049,-1.207,-1.2082,-1.2091,-1.2105,-1.2117,-1.2133,-1.2141,-1.2159,-1.2169,-1.2183,-1.2189,-1.218,-1.2218,-1.2207,-1.2222,-1.2222,-1.223,-1.223,-1.2271,-1.2236,-1.2236,-1.2236,-1.2236,0,-1.2017,-1.2038,-1.205,-1.2066,-1.209,-1.2096,-1.212,-1.2128,-1.2141,-1.2158,-1.2159,-1.2174,-1.2181,-1.2198,-1.2203,-1.2226,-1.2231,-1.2234,-1.2236,-1.2235,-1.2234,-1.2241,-1.224,-1.2237,-1.2237,-1.2237,-1.2236,0,-1.2044,-1.2052,-1.208,-1.2097,-1.2102,-1.2119,-1.2134,-1.2149,-1.2156,-1.2177,-1.2182,-1.2193,-1.2213,-1.222,-1.2244,-1.2247,-1.2274,-1.2274,-1.227,-1.227,-1.2285,-1.2284,-1.2332,-1.2339,-1.2299,-1.23,-1.23,0,-1.2064,-1.2081,-1.21,-1.2112,-1.2121,-1.214,-1.2152,-1.2159,-1.2171,-1.219,-1.2202,-1.2222,-1.2238,-1.2269,-1.2279,-1.2297,-1.2297,-1.2313,-1.23,-1.2298,-1.2297,-1.2297,-1.2298,-1.2315,-1.2316,-1.2316,-1.2316,0,-1.21,-1.2103,-1.2121,-1.214,-1.2155,-1.217,-1.2185,-1.2194,-1.2203,-1.2217,-1.2237,-1.225,-1.2274,-1.2294,-1.2312,-1.2321,-1.232,-1.232,-1.2325,-1.2324,-1.2321,-1.2323,-1.2276,-1.2319,-1.2319,-1.2319,-1.2319,-1.2318,-1.2124,-1.2139,-1.2155,-1.2175,-1.2187,-1.2201,-1.2216,-1.2225,-1.2242,-1.2263,-1.2265,-1.2287,-1.2302,-1.2327,-1.2336,-1.2353,-1.2349,-1.2355,-1.2357,-1.2359,-1.236,-1.2318,-1.2356,-1.2356,-1.2356,-1.2356,-1.2356,0,-1.216,-1.2171,-1.2189,-1.221,-1.2225,-1.2223,-1.224,-1.2252,-1.2272,-1.2286,-1.2302,-1.2325,-1.2344,-1.2355,-1.2374,-1.2385,-1.2385,-1.239,-1.2389,-1.2391,-1.2362,-1.2357,-1.2389,-1.2389,-1.2389,-1.2389,-1.2389,-1.2389,-1.2181,-1.2206,-1.2212,-1.2243,-1.2252,-1.2274,-1.2284,-1.2296,-1.2308,-1.2334,-1.235,-1.2357,-1.237,-1.239,-1.2407,-1.2409,-1.2416,-1.2421,-1.2424,-1.2397,-1.2393,-1.239,-1.2385,-1.2423,-1.2423,-1.2451,-1.2451,-1.2452]}]]